IZ1UQG-2 Weather Reports


time (UTC)temp
C
wind
direction
speed
KPH
gust
KPH
rain 1hr
cm
rain 24hr
cm
rain mn
cm
humidity
%
barometer
mb
20260503055105 13 319 4.8 6.4 0.00 0.00 0.00 74 1018.1
20260503055005 13 320 3.2 6.4 0.00 0.00 0.00 74 1018.1
20260503054905 13 320 3.2 6.4 0.00 0.00 0.00 74 1018.1
20260503054804 13 322 3.2 6.4 0.00 0.00 0.00 74 1018.2
20260503054712 13 324 3.2 6.4 0.00 0.00 0.00 74 1018.1
20260503054605 13 328 3.2 6.4 0.00 0.00 0.00 74 1018.2
20260503054505 13 328 3.2 6.4 0.00 0.00 0.00 74 1018.1
20260503054405 13 329 3.2 4.8 0.00 0.00 0.00 74 1018.2
20260503054204 13 327 3.2 4.8 0.00 0.00 0.00 75 1018.1
20260503054104 13 324 3.2 4.8 0.00 0.00 0.00 75 1018.1
20260503054005 13 322 3.2 4.8 0.00 0.00 0.00 75 1018.1
20260503053905 13 319 3.2 4.8 0.00 0.00 0.00 75 1018.0
20260503053713 13 314 3.2 4.8 0.00 0.00 0.00 75 1018.0
20260503053505 13 316 3.2 6.4 0.00 0.00 0.00 75 1018.1
20260503053305 13 318 3.2 6.4 0.00 0.00 0.00 75 1018.1
20260503053205 13 319 3.2 6.4 0.00 0.00 0.00 75 1018.1
20260503053104 12 321 3.2 6.4 0.00 0.00 0.00 75 1018.1
20260503053005 12 324 3.2 6.4 0.00 0.00 0.00 76 1018.1
20260503052904 12 324 4.8 8.0 0.00 0.00 0.00 75 1018.2
20260503052804 12 325 4.8 8.0 0.00 0.00 0.00 75 1018.1
20260503052712 12 327 4.8 8.0 0.00 0.00 0.00 75 1018.1
20260503052605 12 329 4.8 8.0 0.00 0.00 0.00 75 1018.0
20260503052504 12 327 3.2 8.0 0.00 0.00 0.00 75 1018.1
20260503052404 12 327 3.2 8.0 0.00 0.00 0.00 75 1018.1
20260503052005 13 331 3.2 8.0 0.00 0.00 0.00 74 1018.1
20260503051804 13 330 1.6 6.4 0.00 0.00 0.00 74 1018.1
20260503051712 13 326 1.6 4.8 0.00 0.00 0.00 74 1018.1
20260503051605 13 323 1.6 4.8 0.00 0.00 0.00 74 1018.1
20260503051505 13 322 1.6 4.8 0.00 0.00 0.00 75 1018.0
20260503051404 13 319 1.6 4.8 0.00 0.00 0.00 75 1018.0
20260503051305 13 314 1.6 4.8 0.00 0.00 0.00 75 1018.1
20260503051205 13 310 1.6 4.8 0.00 0.00 0.00 75 1018.0
20260503051104 13 305 1.6 4.8 0.00 0.00 0.00 75 1018.1
20260503051005 12 304 1.6 4.8 0.00 0.00 0.00 75 1018.0
20260503050905 13 299 1.6 3.2 0.00 0.00 0.00 75 1018.0
20260503050804 13 299 1.6 3.2 0.00 0.00 0.00 75 1018.0
20260503050712 13 299 1.6 3.2 0.00 0.00 0.00 75 1018.1
20260503050605 12 299 0.0 3.2 0.00 0.00 0.00 75 1018.1
20260503050405 12 299 1.6 3.2 0.00 0.00 0.00 75 1018.1
20260503050304 12 299 1.6 3.2 0.00 0.00 0.00 75 1018.0
20260503050205 12 299 1.6 3.2 0.00 0.00 0.00 75 1018.1
20260503050105 12 300 1.6 3.2 0.00 0.00 0.00 75 1018.0
20260503045905 12 302 1.6 4.8 0.00 0.00 0.00 76 1018.0
20260503045804 12 303 1.6 6.4 0.00 0.00 0.00 76 1018.1
20260503045604 12 301 1.6 6.4 0.00 0.00 0.00 76 1018.2
20260503045505 12 299 1.6 6.4 0.00 0.00 0.00 76 1018.1
20260503045405 12 296 1.6 6.4 0.00 0.00 0.00 76 1018.2
20260503045305 12 293 1.6 6.4 0.00 0.00 0.00 76 1018.2
20260503045204 12 288 3.2 6.4 0.00 0.00 0.00 77 1018.1
20260503045104 12 284 3.2 6.4 0.00 0.00 0.00 76 1018.2
20260503045005 12 277 3.2 6.4 0.00 0.00 0.00 76 1018.1
20260503044905 12 271 3.2 6.4 0.00 0.00 0.00 76 1018.2
20260503044713 12 263 3.2 6.4 0.00 0.00 0.00 77 1018.2
20260503044605 12 264 3.2 6.4 0.00 0.00 0.00 77 1018.1
20260503044505 12 266 3.2 6.4 0.00 0.00 0.00 77 1018.2
20260503044405 12 267 3.2 6.4 0.00 0.00 0.00 77 1018.2
20260503044305 12 265 3.2 6.4 0.00 0.00 0.00 77 1018.2
20260503044104 12 270 3.2 6.4 0.00 0.00 0.00 77 1018.2
20260503044005 12 275 3.2 6.4 0.00 0.00 0.00 77 1018.2
20260503043904 12 280 3.2 6.4 0.00 0.00 0.00 77 1018.1
20260503043804 12 284 3.2 6.4 0.00 0.00 0.00 77 1018.1
20260503043712 12 287 1.6 6.4 0.00 0.00 0.00 77 1018.1
20260503043605 12 288 1.6 6.4 0.00 0.00 0.00 77 1018.2
20260503043505 12 288 1.6 3.2 0.00 0.00 0.00 76 1018.1
20260503043405 12 286 1.6 3.2 0.00 0.00 0.00 76 1018.0
20260503043304 12 289 1.6 3.2 0.00 0.00 0.00 76 1018.1
20260503043205 12 289 1.6 3.2 0.00 0.00 0.00 76 1018.0
20260503043105 12 287 1.6 3.2 0.00 0.00 0.00 76 1018.0
20260503043005 12 288 1.6 3.2 0.00 0.00 0.00 76 1018.0
20260503042905 12 291 1.6 4.8 0.00 0.00 0.00 76 1018.0
20260503042805 12 289 1.6 4.8 0.00 0.00 0.00 76 1018.1
20260503042711 12 289 1.6 4.8 0.00 0.00 0.00 76 1018.0
20260503042604 12 289 1.6 4.8 0.00 0.00 0.00 76 1018.0
20260503042505 12 292 1.6 4.8 0.00 0.00 0.00 76 1017.9
20260503042404 12 296 1.6 4.8 0.00 0.00 0.00 76 1017.9
20260503042205 12 302 1.6 4.8 0.00 0.00 0.00 76 1018.0
20260503042104 12 302 1.6 4.8 0.00 0.00 0.00 76 1018.0
20260503042005 12 302 1.6 4.8 0.00 0.00 0.00 76 1018.0
20260503041804 12 302 1.6 4.8 0.00 0.00 0.00 77 1018.0
20260503041713 12 301 1.6 4.8 0.00 0.00 0.00 77 1018.0
20260503041604 12 289 1.6 4.8 0.00 0.00 0.00 76 1018.0
20260503041505 12 274 1.6 4.8 0.00 0.00 0.00 77 1018.1
20260503041404 12 259 1.6 4.8 0.00 0.00 0.00 77 1018.0
20260503041304 12 251 1.6 4.8 0.00 0.00 0.00 77 1018.1
20260503041205 12 248 1.6 4.8 0.00 0.00 0.00 77 1018.0
20260503040904 12 244 3.2 6.4 0.00 0.00 0.00 77 1018.1
20260503040713 12 240 3.2 8.0 0.00 0.00 0.00 78 1018.1
20260503040605 12 242 3.2 8.0 0.00 0.00 0.00 78 1018.1
20260503040505 12 243 3.2 8.0 0.00 0.00 0.00 78 1018.1
20260503040404 12 243 3.2 8.0 0.00 0.00 0.00 78 1018.0
20260503040205 12 243 3.2 8.0 0.00 0.00 0.00 78 1018.2
20260503040104 12 239 3.2 8.0 0.00 0.00 0.00 78 1018.1
20260503040005 12 239 3.2 8.0 0.00 0.00 0.00 78 1018.2
20260503035904 12 241 3.2 8.0 0.00 0.00 0.00 78 1018.2
20260503035804 12 244 3.2 8.0 0.00 0.00 0.00 78 1018.2
20260503035713 12 246 3.2 6.4 0.00 0.00 0.00 78 1018.2
20260503035604 12 241 3.2 8.0 0.00 0.00 0.00 78 1018.3
20260503035505 12 240 4.8 8.0 0.00 0.00 0.00 77 1018.2
20260503035305 12 235 4.8 8.0 0.00 0.00 0.00 78 1018.2
20260503035204 12 235 4.8 8.0 0.00 0.00 0.00 78 1018.2
20260503035105 12 236 4.8 8.0 0.00 0.00 0.00 78 1018.2
20260503035005 12 236 4.8 8.0 0.00 0.00 0.00 78 1018.2
20260503034905 12 236 4.8 8.0 0.00 0.00 0.00 77 1018.1
20260503034804 12 234 3.2 8.0 0.00 0.00 0.00 77 1018.1
20260503034713 12 233 3.2 8.0 0.00 0.00 0.00 77 1018.1
20260503034505 12 234 3.2 8.0 0.00 0.00 0.00 77 1018.1
20260503034404 12 237 1.6 6.4 0.00 0.00 0.00 77 1018.2
20260503034305 12 239 1.6 4.8 0.00 0.00 0.00 77 1018.1
20260503034005 12 244 1.6 4.8 0.00 0.00 0.00 77 1018.2
20260503033904 12 243 1.6 4.8 0.00 0.00 0.00 77 1018.1
20260503033804 12 242 1.6 6.4 0.00 0.00 0.00 77 1018.1
20260503033713 12 243 3.2 6.4 0.00 0.00 0.00 77 1018.1
20260503033604 12 243 3.2 6.4 0.00 0.00 0.00 77 1018.2
20260503033505 12 242 3.2 6.4 0.00 0.00 0.00 77 1018.0
20260503033404 12 242 3.2 6.4 0.00 0.00 0.00 76 1018.1
20260503033305 12 242 3.2 6.4 0.00 0.00 0.00 76 1018.1
20260503033204 12 242 3.2 6.4 0.00 0.00 0.00 77 1018.1
20260503033105 12 241 3.2 6.4 0.00 0.00 0.00 77 1018.1
20260503033005 12 240 3.2 6.4 0.00 0.00 0.00 76 1018.1
20260503032904 12 241 3.2 6.4 0.00 0.00 0.00 76 1018.2
20260503032804 12 242 3.2 6.4 0.00 0.00 0.00 76 1018.2
20260503032713 12 242 3.2 6.4 0.00 0.00 0.00 76 1018.3
20260503032504 12 244 3.2 6.4 0.00 0.00 0.00 76 1018.3
20260503032404 12 246 3.2 6.4 0.00 0.00 0.00 76 1018.1
20260503032304 12 249 1.6 6.4 0.00 0.00 0.00 76 1018.2
20260503032204 12 250 3.2 6.4 0.00 0.00 0.00 76 1018.1
20260503032104 12 252 1.6 6.4 0.00 0.00 0.00 76 1018.2
20260503032005 12 254 1.6 4.8 0.00 0.00 0.00 76 1018.2
20260503031805 12 259 1.6 4.8 0.00 0.00 0.00 75 1018.2
20260503031714 12 266 1.6 4.8 0.00 0.00 0.00 75 1018.1
20260503031605 12 270 1.6 4.8 0.00 0.00 0.00 75 1018.2
20260503031505 12 279 1.6 3.2 0.00 0.00 0.00 75 1018.2
20260503031405 12 284 1.6 3.2 0.00 0.00 0.00 76 1018.2
20260503031105 12 276 1.6 4.8 0.00 0.00 0.00 75 1018.2
20260503031005 12 270 1.6 4.8 0.00 0.00 0.00 75 1018.3
20260503030904 12 270 1.6 4.8 0.00 0.00 0.00 75 1018.2
20260503030805 12 269 1.6 4.8 0.00 0.00 0.00 75 1018.2
20260503030714 12 265 1.6 4.8 0.00 0.00 0.00 76 1018.2
20260503030604 12 262 1.6 4.8 0.00 0.00 0.00 76 1018.2
20260503030506 12 256 1.6 4.8 0.00 0.00 0.00 76 1018.2
20260503030405 12 248 1.6 4.8 0.00 0.00 0.00 76 1018.2
20260503030306 12 247 1.6 6.4 0.00 0.00 0.00 75 1018.3
20260503030204 12 245 1.6 6.4 0.00 0.00 0.00 75 1018.2
20260503030105 12 239 1.6 6.4 0.00 0.00 0.00 76 1018.2
20260503025905 12 229 3.2 8.0 0.00 0.00 0.00 76 1018.2
20260503025804 12 230 3.2 9.7 0.00 0.00 0.00 75 1018.1
20260503025714 12 232 3.2 9.7 0.00 0.00 0.00 75 1018.2
20260503025605 12 234 3.2 9.7 0.00 0.00 0.00 75 1018.2
20260503025404 12 240 4.8 9.7 0.00 0.00 0.00 75 1018.2
20260503025305 12 243 4.8 9.7 0.00 0.00 0.00 75 1018.2
20260503025204 12 245 4.8 9.7 0.00 0.00 0.00 75 1018.2
20260503025006 12 254 3.2 9.7 0.00 0.00 0.00 75 1018.2
20260503024904 12 252 4.8 9.7 0.00 0.00 0.00 75 1018.2
20260503024805 12 249 4.8 9.7 0.00 0.00 0.00 76 1018.2
20260503024714 12 247 4.8 9.7 0.00 0.00 0.00 76 1018.2
20260503024605 12 244 4.8 9.7 0.00 0.00 0.00 76 1018.2
20260503024505 12 241 4.8 9.7 0.00 0.00 0.00 76 1018.2
20260503024404 12 239 4.8 9.7 0.00 0.00 0.00 76 1018.2
20260503024304 12 236 4.8 9.7 0.00 0.00 0.00 76 1018.2
20260503024204 12 234 4.8 9.7 0.00 0.00 0.00 76 1018.3
20260503024104 12 231 4.8 9.7 0.00 0.00 0.00 76 1018.1
20260503024006 12 233 4.8 9.7 0.00 0.00 0.00 76 1018.3
20260503023805 12 237 3.2 8.0 0.00 0.00 0.00 76 1018.3
20260503023715 12 240 3.2 8.0 0.00 0.00 0.00 76 1018.2
20260503023605 12 241 3.2 8.0 0.00 0.00 0.00 76 1018.2
20260503023504 12 239 3.2 8.0 0.00 0.00 0.00 76 1018.2
20260503023405 12 240 3.2 8.0 0.00 0.00 0.00 76 1018.3
20260503023304 12 238 3.2 8.0 0.00 0.00 0.00 76 1018.2
20260503023204 12 236 4.8 9.7 0.00 0.00 0.00 76 1018.3
20260503023006 12 231 4.8 9.7 0.00 0.00 0.00 76 1018.3
20260503022904 12 230 4.8 9.7 0.00 0.00 0.00 76 1018.3
20260503022804 12 229 4.8 9.7 0.00 0.00 0.00 76 1018.3
20260503022714 12 228 4.8 9.7 0.00 0.00 0.00 76 1018.3
20260503022604 12 227 4.8 9.7 0.00 0.00 0.00 76 1018.4
20260503022404 12 226 6.4 9.7 0.00 0.00 0.00 76 1018.3
20260503022305 12 225 6.4 9.7 0.00 0.00 0.00 76 1018.3
20260503022105 12 226 6.4 9.7 0.00 0.00 0.00 76 1018.2
20260503022005 12 227 6.4 9.7 0.00 0.00 0.00 76 1018.3
20260503021905 12 227 6.4 9.7 0.00 0.00 0.00 76 1018.3
20260503021804 12 227 6.4 9.7 0.00 0.00 0.00 76 1018.3
20260503021714 12 227 6.4 9.7 0.00 0.00 0.00 76 1018.4
20260503021505 12 227 6.4 9.7 0.00 0.00 0.00 76 1018.4
20260503021404 12 227 6.4 9.7 0.00 0.00 0.00 76 1018.3
20260503021305 12 228 6.4 9.7 0.00 0.00 0.00 76 1018.4
20260503021206 12 228 6.4 8.0 0.00 0.00 0.00 76 1018.3
20260503021105 12 228 4.8 8.0 0.00 0.00 0.00 76 1018.4
20260503021005 12 228 4.8 8.0 0.00 0.00 0.00 76 1018.4
20260503020904 12 228 4.8 8.0 0.00 0.00 0.00 76 1018.4
20260503020805 12 228 3.2 8.0 0.00 0.00 0.00 75 1018.3
20260503020713 12 228 3.2 6.4 0.00 0.00 0.00 75 1018.4
20260503020605 12 229 3.2 6.4 0.00 0.00 0.00 75 1018.4
20260503020505 12 229 3.2 6.4 0.00 0.00 0.00 75 1018.4
20260503020405 12 229 3.2 6.4 0.00 0.00 0.00 75 1018.4
20260503020305 12 229 3.2 6.4 0.00 0.00 0.00 75 1018.4
20260503020204 12 231 3.2 6.4 0.00 0.00 0.00 75 1018.4
20260503020104 12 232 3.2 6.4 0.00 0.00 0.00 75 1018.3
20260503020006 12 233 1.6 6.4 0.00 0.00 0.00 75 1018.3
20260503015804 12 232 3.2 6.4 0.00 0.00 0.00 75 1018.4
20260503015713 12 232 3.2 6.4 0.00 0.00 0.00 75 1018.4
20260503015605 12 231 3.2 6.4 0.00 0.00 0.00 76 1018.4
20260503015505 12 230 4.8 8.0 0.00 0.00 0.00 76 1018.3
20260503015405 12 229 4.8 8.0 0.00 0.00 0.00 76 1018.4
20260503015305 12 229 4.8 8.0 0.00 0.00 0.00 76 1018.4
20260503015105 12 229 4.8 8.0 0.00 0.00 0.00 76 1018.4
20260503015006 12 228 4.8 8.0 0.00 0.00 0.00 76 1018.4
20260503014905 12 228 4.8 8.0 0.00 0.00 0.00 76 1018.4
20260503014804 12 229 4.8 8.0 0.00 0.00 0.00 76 1018.4
20260503014714 12 229 4.8 8.0 0.00 0.00 0.00 75 1018.5
20260503014605 12 230 4.8 8.0 0.00 0.00 0.00 75 1018.4
20260503014505 12 232 3.2 8.0 0.00 0.00 0.00 75 1018.5
20260503014404 12 234 3.2 8.0 0.00 0.00 0.00 75 1018.4
20260503014105 12 242 3.2 6.4 0.00 0.00 0.00 75 1018.5
20260503014006 12 247 3.2 6.4 0.00 0.00 0.00 75 1018.4
20260503013905 12 248 3.2 6.4 0.00 0.00 0.00 74 1018.5
20260503013804 12 251 1.6 6.4 0.00 0.00 0.00 74 1018.4
20260503013713 12 255 1.6 6.4 0.00 0.00 0.00 74 1018.5
20260503013605 12 261 1.6 6.4 0.00 0.00 0.00 74 1018.4
20260503013505 13 270 1.6 6.4 0.00 0.00 0.00 74 1018.4
20260503013404 13 279 1.6 6.4 0.00 0.00 0.00 74 1018.5
20260503013305 13 289 1.6 3.2 0.00 0.00 0.00 74 1018.6
20260503013205 13 289 1.6 3.2 0.00 0.00 0.00 73 1018.5
20260503013105 13 289 1.6 3.2 0.00 0.00 0.00 73 1018.4
20260503013006 13 289 1.6 3.2 0.00 0.00 0.00 73 1018.5
20260503012805 13 289 1.6 3.2 0.00 0.00 0.00 73 1018.5
20260503012714 13 289 0.0 3.2 0.00 0.00 0.00 73 1018.5
20260503012504 13 289 0.0 3.2 0.00 0.00 0.00 73 1018.5
20260503012404 13 289 0.0 3.2 0.00 0.00 0.00 73 1018.5
20260503012305 13 290 0.0 3.2 0.00 0.00 0.00 72 1018.5
20260503012204 13 294 0.0 3.2 0.00 0.00 0.00 72 1018.5
20260503012105 13 297 0.0 3.2 0.00 0.00 0.00 72 1018.5
20260503012005 13 302 1.6 4.8 0.00 0.00 0.00 72 1018.5
20260503011905 13 309 1.6 4.8 0.00 0.00 0.00 72 1018.4
20260503011804 13 320 1.6 6.4 0.00 0.00 0.00 72 1018.5
20260503011604 13 321 1.6 6.4 0.00 0.00 0.00 71 1018.5
20260503011505 13 321 1.6 6.4 0.00 0.00 0.00 71 1018.5
20260503011405 13 322 1.6 6.4 0.00 0.00 0.00 71 1018.5
20260503011304 13 323 1.6 6.4 0.00 0.00 0.00 71 1018.5
20260503011205 13 318 1.6 6.4 0.00 0.00 0.00 71 1018.4
20260503011104 13 303 1.6 6.4 0.00 0.00 0.00 71 1018.5
20260503011005 13 292 1.6 6.4 0.00 0.00 0.00 71 1018.4
20260503010904 13 279 1.6 6.4 0.00 0.00 0.00 71 1018.5
20260503010804 13 259 1.6 4.8 0.00 0.00 0.00 72 1018.5
20260503010605 13 242 1.6 4.8 0.00 0.00 0.00 72 1018.5
20260503010505 13 242 1.6 4.8 0.00 0.00 0.00 72 1018.5
20260503010405 13 243 1.6 4.8 0.00 0.00 0.00 72 1018.5
20260503010304 13 246 1.6 4.8 0.00 0.00 0.00 72 1018.5
20260503010205 13 247 1.6 6.4 0.00 0.00 0.00 72 1018.6
20260503005905 13 258 1.6 6.4 0.00 0.00 0.00 72 1018.6
20260503005712 13 259 3.2 6.4 0.00 0.00 0.00 72 1018.6
20260503005605 13 260 3.2 6.4 0.00 0.00 0.00 72 1018.7
20260503005505 13 259 3.2 6.4 0.00 0.00 0.00 72 1018.5
20260503005405 13 258 3.2 6.4 0.00 0.00 0.00 72 1018.6
20260503005305 13 258 1.6 6.4 0.00 0.00 0.00 72 1018.7
20260503005204 13 258 1.6 4.8 0.00 0.00 0.00 72 1018.6
20260503005104 13 256 1.6 4.8 0.00 0.00 0.00 72 1018.5
20260503005005 13 250 1.6 4.8 0.00 0.00 0.00 72 1018.6
20260503004906 13 246 1.6 4.8 0.00 0.00 0.00 72 1018.7
20260503004605 13 227 1.6 4.8 0.00 0.00 0.00 71 1018.7
20260503004505 13 225 1.6 3.2 0.00 0.00 0.00 71 1018.8
20260503004405 13 225 1.6 3.2 0.00 0.00 0.00 71 1018.8
20260503004305 13 224 1.6 4.8 0.00 0.00 0.00 71 1018.7
20260503004206 13 223 1.6 6.4 0.00 0.00 0.00 71 1018.6
20260503004104 13 223 1.6 6.4 0.00 0.00 0.00 71 1018.8
20260503003905 13 222 3.2 6.4 0.00 0.00 0.00 72 1018.8
20260503003805 13 221 3.2 6.4 0.00 0.00 0.00 72 1018.7
20260503003712 13 221 3.2 6.4 0.00 0.00 0.00 72 1018.8
20260503003605 13 221 3.2 6.4 0.00 0.00 0.00 72 1018.7
20260503003505 13 221 3.2 6.4 0.00 0.00 0.00 72 1018.8
20260503003405 13 221 3.2 6.4 0.00 0.00 0.00 72 1018.8
20260503003304 13 221 3.2 6.4 0.00 0.00 0.00 72 1018.8
20260503003104 13 221 3.2 6.4 0.00 0.00 0.00 72 1018.9
20260503003005 13 221 3.2 6.4 0.00 0.00 0.00 72 1019.0
20260503002804 13 221 3.2 4.8 0.00 0.00 0.00 72 1018.9
20260503002711 13 221 1.6 4.8 0.00 0.00 0.00 72 1018.9
20260503002504 13 220 1.6 4.8 0.00 0.00 0.00 71 1018.9
20260503002405 13 220 1.6 4.8 0.00 0.00 0.00 71 1019.0
20260503002305 13 220 1.6 3.2 0.00 0.00 0.00 71 1019.0
20260503002205 13 220 1.6 4.8 0.00 0.00 0.00 71 1019.1
20260503002105 13 218 1.6 4.8 0.00 0.00 0.00 71 1019.0
20260503002005 13 218 1.6 4.8 0.00 0.00 0.00 71 1019.0
20260503001904 13 216 1.6 4.8 0.00 0.00 0.00 71 1019.0
20260503001804 13 213 1.6 4.8 0.00 0.00 0.00 71 1019.1
20260503001712 13 216 1.6 4.8 0.00 0.00 0.00 71 1019.0
20260503001605 13 219 1.6 6.4 0.00 0.00 0.00 71 1019.0
20260503001505 13 220 3.2 6.4 0.00 0.00 0.00 71 1019.0
20260503001404 13 221 3.2 6.4 0.00 0.00 0.00 70 1019.1
20260503001305 13 225 3.2 6.4 0.00 0.00 0.00 70 1019.0
20260503001205 13 232 3.2 6.4 0.00 0.00 0.00 70 1019.0
20260503001105 13 240 3.2 6.4 0.00 0.00 0.00 70 1019.1
20260503001004 13 241 3.2 6.4 0.00 0.00 0.00 70 1019.1
20260503000713 14 250 1.6 6.4 0.00 0.00 0.00 69 1019.1
20260503000604 14 253 1.6 4.8 0.00 0.00 0.00 69 1019.0
20260503000407 14 261 1.6 4.8 0.00 0.00 0.00 69 1019.0
20260503000305 14 261 1.6 4.8 0.00 0.00 0.00 69 1019.1
20260503000204 14 255 1.6 4.8 0.00 0.00 0.00 69 1019.1
20260502235904 14 258 1.6 4.8 0.00 0.00 0.00 69 1019.1
20260502235604 14 263 1.6 4.8 0.00 0.00 0.00 69 1019.1
20260502235505 14 263 1.6 6.4 0.00 0.00 0.00 69 1019.1
20260502235404 14 267 3.2 6.4 0.00 0.00 0.00 69 1019.0
20260502235305 14 270 1.6 6.4 0.00 0.00 0.00 69 1019.1
20260502235204 14 268 3.2 6.4 0.00 0.00 0.00 69 1019.1
20260502235104 14 261 3.2 6.4 0.00 0.00 0.00 69 1019.1
20260502235005 14 254 3.2 8.0 0.00 0.00 0.00 69 1019.1
20260502234905 14 247 3.2 8.0 0.00 0.00 0.00 69 1019.2
20260502234804 14 244 3.2 8.0 0.00 0.00 0.00 69 1019.1
20260502234711 14 241 4.8 8.0 0.00 0.00 0.00 69 1019.1
20260502234605 14 238 4.8 8.0 0.00 0.00 0.00 69 1019.1
20260502234404 14 234 4.8 8.0 0.00 0.00 0.00 69 1019.0
20260502234304 14 232 4.8 8.0 0.00 0.00 0.00 69 1019.1
20260502234005 14 233 4.8 8.0 0.00 0.00 0.00 69 1019.1
20260502233906 14 234 4.8 8.0 0.00 0.00 0.00 69 1019.2
20260502233804 14 234 4.8 6.4 0.00 0.00 0.00 68 1019.1
20260502233711 14 234 4.8 6.4 0.00 0.00 0.00 68 1019.2
20260502233605 14 232 4.8 8.0 0.00 0.00 0.00 69 1019.1
20260502233505 14 230 4.8 8.0 0.00 0.00 0.00 69 1019.2
20260502233405 14 228 4.8 8.0 0.00 0.00 0.00 68 1019.2
20260502233204 14 227 4.8 8.0 0.00 0.00 0.00 68 1019.2
20260502233004 14 223 4.8 8.0 0.00 0.00 0.00 68 1019.2
20260502232804 14 220 6.4 8.0 0.00 0.00 0.00 68 1019.2
20260502232711 14 220 6.4 8.0 0.00 0.00 0.00 68 1019.2
20260502232605 14 221 6.4 8.0 0.00 0.00 0.00 68 1019.3
20260502232504 14 221 6.4 8.0 0.00 0.00 0.00 68 1019.2
20260502232404 14 222 6.4 8.0 0.00 0.00 0.00 68 1019.3
20260502232305 14 222 6.4 8.0 0.00 0.00 0.00 68 1019.2
20260502232204 14 222 6.4 8.0 0.00 0.00 0.00 68 1019.2
20260502232105 14 223 6.4 8.0 0.00 0.00 0.00 68 1019.2
20260502232005 14 224 6.4 8.0 0.00 0.00 0.00 68 1019.3
20260502231804 14 225 6.4 8.0 0.00 0.00 0.00 68 1019.3
20260502231711 14 226 6.4 8.0 0.00 0.00 0.00 68 1019.3
20260502231604 14 228 6.4 8.0 0.00 0.00 0.00 68 1019.3
20260502231511 14 228 6.4 8.0 0.00 0.00 0.00 68 1019.2
20260502231405 14 228 6.4 8.0 0.00 0.00 0.00 69 1019.1
20260502231304 14 228 6.4 8.0 0.00 0.00 0.00 69 1019.2
20260502231204 14 229 6.4 8.0 0.00 0.00 0.00 69 1019.2
20260502231105 14 229 6.4 8.0 0.00 0.00 0.00 69 1019.1
20260502231004 14 228 4.8 8.0 0.00 0.00 0.00 69 1019.2
20260502230904 14 228 4.8 8.0 0.00 0.00 0.00 69 1019.2
20260502230804 14 229 4.8 8.0 0.00 0.00 0.00 69 1019.2
20260502230604 14 230 4.8 8.0 0.00 0.00 0.00 69 1019.3
20260502230504 14 231 4.8 8.0 0.00 0.00 0.00 69 1019.2
20260502230305 14 235 4.8 8.0 0.00 0.00 0.00 69 1019.1
20260502230205 14 239 4.8 8.0 0.00 0.00 0.00 69 1019.2
20260502230104 14 241 4.8 9.7 0.00 0.00 0.00 69 1019.2
20260502230005 14 243 4.8 9.7 0.00 0.00 0.00 69 1019.2
20260502225805 14 244 4.8 9.7 0.00 0.00 0.00 69 1019.2
20260502225605 14 240 4.8 9.7 0.00 0.00 0.00 68 1019.2
20260502225505 14 237 4.8 11.3 0.00 0.00 0.00 68 1019.2
20260502225405 14 235 6.4 11.3 0.00 0.00 0.00 68 1019.2
20260502225205 14 232 6.4 11.3 0.00 0.00 0.00 68 1019.2
20260502225005 14 232 6.4 11.3 0.00 0.00 0.00 68 1019.2
20260502224904 14 232 6.4 11.3 0.00 0.00 0.00 68 1019.1
20260502224804 14 233 6.4 11.3 0.00 0.00 0.00 68 1019.2
20260502224711 14 231 6.4 11.3 0.00 0.00 0.00 68 1019.1
20260502224604 14 229 6.4 11.3 0.00 0.00 0.00 68 1019.2
20260502224504 14 228 6.4 11.3 0.00 0.00 0.00 68 1019.2
20260502224404 14 228 6.4 11.3 0.00 0.00 0.00 68 1019.1
20260502224305 14 227 6.4 11.3 0.00 0.00 0.00 68 1019.1
20260502224104 14 227 6.4 12.9 0.00 0.00 0.00 68 1019.2
20260502224005 14 226 6.4 12.9 0.00 0.00 0.00 68 1019.1
20260502223905 14 225 6.4 12.9 0.00 0.00 0.00 68 1019.2
20260502223805 14 224 8.0 12.9 0.00 0.00 0.00 68 1019.1
20260502223711 14 225 6.4 12.9 0.00 0.00 0.00 68 1019.2
20260502223605 14 229 6.4 12.9 0.00 0.00 0.00 68 1019.3
20260502223505 14 232 6.4 16.1 0.00 0.00 0.00 68 1019.2
20260502223404 14 231 8.0 16.1 0.00 0.00 0.00 68 1019.2
20260502223304 14 231 8.0 16.1 0.00 0.00 0.00 68 1019.2
20260502223204 14 232 8.0 16.1 0.00 0.00 0.00 68 1019.1
20260502223105 14 231 8.0 16.1 0.00 0.00 0.00 68 1019.2
20260502223005 14 231 8.0 16.1 0.00 0.00 0.00 67 1019.2
20260502222905 14 232 8.0 16.1 0.00 0.00 0.00 67 1019.1
20260502222805 14 233 8.0 16.1 0.00 0.00 0.00 67 1019.1
20260502222604 15 233 8.0 16.1 0.00 0.00 0.00 67 1019.1
20260502222505 15 232 6.4 16.1 0.00 0.00 0.00 67 1019.2
20260502222412 15 235 6.4 14.5 0.00 0.00 0.00 67 1019.2
20260502222305 15 238 6.4 12.9 0.00 0.00 0.00 67 1019.2
20260502222204 15 239 6.4 11.3 0.00 0.00 0.00 67 1019.1
20260502222105 15 240 6.4 11.3 0.00 0.00 0.00 67 1019.1
20260502222005 15 241 6.4 11.3 0.00 0.00 0.00 67 1019.1
20260502221904 15 243 6.4 11.3 0.00 0.00 0.00 67 1019.1
20260502221605 15 247 4.8 11.3 0.00 0.00 0.00 67 1019.2
20260502221504 15 248 4.8 11.3 0.00 0.00 0.00 67 1019.1
20260502221204 15 263 3.2 11.3 0.00 0.00 0.00 66 1019.1
20260502221104 15 270 3.2 8.0 0.00 0.00 0.00 66 1019.1
20260502221004 15 276 1.6 6.4 0.00 0.00 0.00 65 1019.1
20260502220904 15 282 1.6 6.4 0.00 0.00 0.00 65 1019.1
20260502220804 15 273 3.2 8.0 0.00 0.00 0.00 65 1019.1
20260502220604 15 243 3.2 11.3 0.00 0.00 0.00 65 1019.1
20260502220505 15 236 4.8 11.3 0.00 0.00 0.00 65 1019.1
20260502220415 15 229 4.8 11.3 0.00 0.00 0.00 64 1019.2
20260502220305 15 224 4.8 11.3 0.00 0.00 0.00 64 1019.1
20260502220204 15 222 6.4 11.3 0.00 0.00 0.00 64 1019.1
20260502220105 15 222 6.4 11.3 0.00 0.00 0.00 64 1019.1
20260502220007 15 221 8.0 11.3 0.00 0.00 0.00 64 1019.0
20260502215905 15 219 8.0 11.3 0.00 0.00 0.00 64 1019.0
20260502215805 15 220 8.0 11.3 0.00 0.00 0.00 64 1019.1
20260502215705 15 222 8.0 11.3 0.00 0.00 0.00 64 1019.1
20260502215605 15 224 8.0 11.3 0.00 0.00 0.00 64 1019.1
20260502215411 15 227 8.0 11.3 0.00 0.00 0.00 64 1019.1
20260502215305 15 229 8.0 11.3 0.00 0.00 0.00 64 1019.0
20260502215104 15 234 6.4 11.3 0.00 0.00 0.00 64 1019.1
20260502215005 15 238 6.4 11.3 0.00 0.00 0.00 64 1019.2
20260502214904 15 243 6.4 11.3 0.00 0.00 0.00 64 1019.3
20260502214804 15 246 4.8 9.7 0.00 0.00 0.00 64 1019.2
20260502214705 15 248 4.8 9.7 0.00 0.00 0.00 64 1019.3
20260502214605 15 249 4.8 8.0 0.00 0.00 0.00 64 1019.1
20260502214505 15 250 4.8 8.0 0.00 0.00 0.00 63 1019.2
20260502214305 15 253 4.8 8.0 0.00 0.00 0.00 63 1019.1
20260502214105 16 255 3.2 8.0 0.00 0.00 0.00 63 1019.1
20260502214005 16 256 3.2 8.0 0.00 0.00 0.00 63 1019.1
20260502213904 16 256 3.2 8.0 0.00 0.00 0.00 63 1019.1
20260502213805 16 256 3.2 8.0 0.00 0.00 0.00 63 1019.2
20260502213704 16 258 3.2 6.4 0.00 0.00 0.00 63 1019.2
20260502213605 15 259 3.2 6.4 0.00 0.00 0.00 63 1019.2
20260502213505 16 262 3.2 6.4 0.00 0.00 0.00 63 1019.2
20260502213411 15 263 1.6 6.4 0.00 0.00 0.00 63 1019.1
20260502213304 16 268 1.6 4.8 0.00 0.00 0.00 64 1019.2
20260502213204 16 270 1.6 4.8 0.00 0.00 0.00 64 1019.1
20260502213105 16 273 1.6 4.8 0.00 0.00 0.00 64 1019.1
20260502213005 16 275 1.6 4.8 0.00 0.00 0.00 64 1019.2
20260502212905 16 282 1.6 4.8 0.00 0.00 0.00 64 1019.2
20260502212804 16 288 1.6 4.8 0.00 0.00 0.00 64 1019.2
20260502212705 16 293 1.6 4.8 0.00 0.00 0.00 64 1019.1
20260502212604 16 294 1.6 4.8 0.00 0.00 0.00 64 1019.1
20260502212504 16 295 1.6 4.8 0.00 0.00 0.00 64 1019.0
20260502212305 16 294 1.6 4.8 0.00 0.00 0.00 63 1019.1
20260502212204 16 293 1.6 4.8 0.00 0.00 0.00 63 1019.1
20260502212104 16 292 1.6 4.8 0.00 0.00 0.00 63 1019.1
20260502212005 16 292 1.6 4.8 0.00 0.00 0.00 63 1019.1
20260502211905 16 292 1.6 4.8 0.00 0.00 0.00 63 1019.1
20260502211804 16 293 1.6 4.8 0.00 0.00 0.00 63 1019.2
20260502211705 16 296 3.2 6.4 0.00 0.00 0.00 63 1019.1
20260502211605 16 299 3.2 6.4 0.00 0.00 0.00 63 1019.1
20260502211505 16 304 3.2 6.4 0.00 0.00 0.00 63 1019.1
20260502211412 16 304 3.2 6.4 0.00 0.00 0.00 63 1019.1
20260502211306 16 306 3.2 6.4 0.00 0.00 0.00 63 1019.1
20260502211204 16 310 3.2 6.4 0.00 0.00 0.00 63 1019.1
20260502211106 16 312 3.2 6.4 0.00 0.00 0.00 63 1019.1
20260502211004 16 310 3.2 6.4 0.00 0.00 0.00 63 1019.1
20260502210904 16 305 4.8 8.0 0.00 0.00 0.00 63 1019.1
20260502210805 16 302 4.8 8.0 0.00 0.00 0.00 63 1019.1
20260502210704 16 297 4.8 8.0 0.00 0.00 0.00 63 1019.1
20260502210604 16 293 4.8 8.0 0.00 0.00 0.00 63 1019.2
20260502210504 16 283 4.8 8.0 0.00 0.00 0.00 63 1019.2
20260502210411 16 277 4.8 8.0 0.00 0.00 0.00 63 1019.1
20260502210305 16 270 4.8 8.0 0.00 0.00 0.00 63 1019.1
20260502210204 16 261 4.8 9.7 0.00 0.00 0.00 62 1019.1
20260502210105 16 252 4.8 9.7 0.00 0.00 0.00 62 1019.1
20260502210004 16 246 4.8 9.7 0.00 0.00 0.00 62 1019.2
20260502205904 16 242 4.8 9.7 0.00 0.00 0.00 62 1019.0
20260502205805 16 237 4.8 9.7 0.00 0.00 0.00 62 1019.1
20260502205505 16 224 4.8 9.7 0.00 0.00 0.00 61 1019.2
20260502205411 16 222 4.8 9.7 0.00 0.00 0.00 61 1019.1
20260502205305 16 218 6.4 9.7 0.00 0.00 0.00 61 1019.2
20260502205204 16 216 6.4 9.7 0.00 0.00 0.00 61 1019.1
20260502205104 16 211 6.4 9.7 0.00 0.00 0.00 60 1019.1
20260502205005 16 208 6.4 12.9 0.00 0.00 0.00 60 1019.1
20260502204804 16 202 6.4 12.9 0.00 0.00 0.00 60 1019.2
20260502204705 16 201 6.4 12.9 0.00 0.00 0.00 60 1019.1
20260502204605 16 199 8.0 12.9 0.00 0.00 0.00 59 1019.2
20260502204505 16 197 8.0 12.9 0.00 0.00 0.00 59 1019.1
20260502204411 16 195 8.0 12.9 0.00 0.00 0.00 59 1019.1
20260502204204 16 194 8.0 12.9 0.00 0.00 0.00 59 1019.1
20260502204105 16 194 8.0 12.9 0.00 0.00 0.00 60 1019.2
20260502204004 16 195 8.0 12.9 0.00 0.00 0.00 60 1019.1
20260502203904 16 196 8.0 12.9 0.00 0.00 0.00 60 1019.1
20260502203804 16 197 9.7 12.9 0.00 0.00 0.00 60 1019.1
20260502203704 16 198 9.7 12.9 0.00 0.00 0.00 60 1019.2
20260502203605 16 199 9.7 12.9 0.00 0.00 0.00 60 1019.2
20260502203412 16 201 9.7 12.9 0.00 0.00 0.00 60 1019.0
20260502203304 16 203 9.7 12.9 0.00 0.00 0.00 60 1019.1
20260502203204 16 204 9.7 12.9 0.00 0.00 0.00 60 1019.2
20260502203104 16 206 8.0 12.9 0.00 0.00 0.00 60 1019.2
20260502202904 16 208 8.0 12.9 0.00 0.00 0.00 61 1019.1
20260502202806 16 209 8.0 12.9 0.00 0.00 0.00 61 1019.1
20260502202704 16 210 6.4 12.9 0.00 0.00 0.00 61 1019.1
20260502202605 16 210 6.4 12.9 0.00 0.00 0.00 61 1019.1
20260502202504 16 211 6.4 12.9 0.00 0.00 0.00 61 1019.1
20260502202412 16 211 6.4 12.9 0.00 0.00 0.00 61 1019.1
20260502202305 16 210 6.4 12.9 0.00 0.00 0.00 62 1019.1
20260502202205 16 209 6.4 12.9 0.00 0.00 0.00 62 1019.1
20260502202106 16 207 8.0 12.9 0.00 0.00 0.00 61 1019.1
20260502202004 16 205 8.0 12.9 0.00 0.00 0.00 61 1019.2
20260502201905 16 204 8.0 12.9 0.00 0.00 0.00 61 1019.1
20260502201805 16 203 8.0 12.9 0.00 0.00 0.00 61 1019.2
20260502201704 16 201 8.0 12.9 0.00 0.00 0.00 60 1019.2
20260502201605 16 199 8.0 12.9 0.00 0.00 0.00 60 1019.1
20260502201411 16 196 8.0 12.9 0.00 0.00 0.00 60 1019.1
20260502201305 16 194 8.0 12.9 0.00 0.00 0.00 60 1019.2
20260502201204 16 192 8.0 12.9 0.00 0.00 0.00 60 1019.0
20260502201104 16 192 8.0 12.9 0.00 0.00 0.00 60 1019.0
20260502201005 16 192 8.0 12.9 0.00 0.00 0.00 60 1019.2
20260502200804 16 195 8.0 12.9 0.00 0.00 0.00 60 1019.0
20260502200705 16 196 8.0 12.9 0.00 0.00 0.00 60 1019.0
20260502200605 16 199 8.0 12.9 0.00 0.00 0.00 60 1019.0
20260502200505 16 203 8.0 12.9 0.00 0.00 0.00 60 1018.9
20260502200304 17 208 8.0 12.9 0.00 0.00 0.00 59 1018.9
20260502200106 17 210 8.0 12.9 0.00 0.00 0.00 59 1018.9
20260502200005 17 211 8.0 12.9 0.00 0.00 0.00 59 1018.9
20260502195905 17 211 8.0 12.9 0.00 0.00 0.00 59 1018.9
20260502195805 17 210 8.0 14.5 0.00 0.00 0.00 59 1018.9
20260502195415 17 208 8.0 14.5 0.00 0.00 0.00 59 1018.8
20260502195305 17 207 8.0 14.5 0.00 0.00 0.00 59 1018.9
20260502195204 17 207 8.0 14.5 0.00 0.00 0.00 59 1018.8
20260502194904 17 207 9.7 14.5 0.00 0.00 0.00 59 1018.9
20260502194805 17 207 8.0 12.9 0.00 0.00 0.00 59 1018.8
20260502194711 17 207 8.0 12.9 0.00 0.00 0.00 59 1018.9
20260502194605 17 208 8.0 12.9 0.00 0.00 0.00 59 1018.8
20260502194505 17 208 8.0 12.9 0.00 0.00 0.00 59 1018.9
20260502194405 17 208 8.0 12.9 0.00 0.00 0.00 59 1018.8
20260502194304 17 208 8.0 12.9 0.00 0.00 0.00 59 1018.8
20260502194205 17 208 8.0 12.9 0.00 0.00 0.00 59 1018.8
20260502194104 17 207 8.0 12.9 0.00 0.00 0.00 59 1018.9
20260502194005 17 207 6.4 11.3 0.00 0.00 0.00 59 1018.8
20260502193905 17 206 6.4 11.3 0.00 0.00 0.00 59 1018.8
20260502193710 17 205 8.0 11.3 0.00 0.00 0.00 59 1018.8
20260502193505 17 204 8.0 11.3 0.00 0.00 0.00 59 1018.7
20260502193405 17 204 8.0 11.3 0.00 0.00 0.00 59 1018.8
20260502193305 17 204 8.0 11.3 0.00 0.00 0.00 59 1018.7
20260502193205 17 205 8.0 11.3 0.00 0.00 0.00 59 1018.7
20260502193105 17 205 8.0 11.3 0.00 0.00 0.00 59 1018.7
20260502193005 17 206 8.0 11.3 0.00 0.00 0.00 59 1018.8
20260502192904 17 206 8.0 11.3 0.00 0.00 0.00 59 1018.8
20260502192805 17 207 8.0 11.3 0.00 0.00 0.00 59 1018.7
20260502192604 17 210 8.0 11.3 0.00 0.00 0.00 59 1018.7
20260502192505 17 210 6.4 11.3 0.00 0.00 0.00 59 1018.7
20260502192404 17 211 6.4 11.3 0.00 0.00 0.00 59 1018.6
20260502192305 17 212 6.4 11.3 0.00 0.00 0.00 59 1018.6
20260502192104 17 214 6.4 11.3 0.00 0.00 0.00 59 1018.6
20260502192005 17 215 6.4 11.3 0.00 0.00 0.00 59 1018.7
20260502191905 17 215 6.4 11.3 0.00 0.00 0.00 59 1018.6
20260502191804 17 215 6.4 11.3 0.00 0.00 0.00 58 1018.7
20260502191714 17 215 6.4 11.3 0.00 0.00 0.00 59 1018.5
20260502191604 17 215 6.4 11.3 0.00 0.00 0.00 58 1018.6
20260502191505 17 216 6.4 11.3 0.00 0.00 0.00 58 1018.7
20260502191405 17 218 6.4 11.3 0.00 0.00 0.00 59 1018.6
20260502191205 17 218 6.4 9.7 0.00 0.00 0.00 59 1018.6
20260502191104 17 217 4.8 9.7 0.00 0.00 0.00 58 1018.5
20260502190904 17 217 4.8 9.7 0.00 0.00 0.00 58 1018.5
20260502190804 17 217 4.8 9.7 0.00 0.00 0.00 58 1018.5
20260502190704 17 218 3.2 9.7 0.00 0.00 0.00 59 1018.6
20260502190404 17 218 1.6 9.7 0.00 0.00 0.00 59 1018.5
20260502190306 18 217 1.6 8.0 0.00 0.00 0.00 59 1018.5
20260502190205 18 213 1.6 6.4 0.00 0.00 0.00 59 1018.5
20260502190105 18 211 1.6 4.8 0.00 0.00 0.00 59 1018.5
20260502185804 18 212 3.2 6.4 0.00 0.00 0.00 58 1018.5
20260502185704 18 211 3.2 6.4 0.00 0.00 0.00 58 1018.5
20260502185605 18 210 3.2 6.4 0.00 0.00 0.00 58 1018.4
20260502185405 18 206 3.2 6.4 0.00 0.00 0.00 58 1018.5
20260502185312 18 207 1.6 6.4 0.00 0.00 0.00 58 1018.5
20260502185205 18 208 1.6 6.4 0.00 0.00 0.00 58 1018.4
20260502185005 18 208 1.6 6.4 0.00 0.00 0.00 57 1018.4
20260502184805 18 201 1.6 4.8 0.00 0.00 0.00 57 1018.4
20260502184705 18 199 1.6 4.8 0.00 0.00 0.00 56 1018.4
20260502184606 18 196 1.6 4.8 0.00 0.00 0.00 57 1018.3
20260502184504 18 192 1.6 4.8 0.00 0.00 0.00 57 1018.3
20260502184406 18 191 1.6 6.4 0.00 0.00 0.00 56 1018.3
20260502184314 18 191 1.6 6.4 0.00 0.00 0.00 56 1018.3
20260502184204 18 194 1.6 6.4 0.00 0.00 0.00 56 1018.2
20260502184105 18 199 3.2 8.0 0.00 0.00 0.00 56 1018.3
20260502183906 18 202 3.2 8.0 0.00 0.00 0.00 56 1018.2
20260502183610 18 207 4.8 8.0 0.00 0.00 0.00 56 1018.2
20260502183505 18 209 4.8 8.0 0.00 0.00 0.00 56 1018.1
20260502183405 18 211 4.8 8.0 0.00 0.00 0.00 56 1018.2
20260502183304 18 211 4.8 8.0 0.00 0.00 0.00 56 1018.2
20260502183205 18 211 6.4 8.0 0.00 0.00 0.00 56 1018.2
20260502183105 18 210 6.4 8.0 0.00 0.00 0.00 55 1018.3
20260502183005 18 210 6.4 8.0 0.00 0.00 0.00 55 1018.2
20260502182905 18 210 6.4 8.0 0.00 0.00 0.00 55 1018.2
20260502182804 18 210 6.4 8.0 0.00 0.00 0.00 55 1018.3
20260502182505 19 212 6.4 8.0 0.00 0.00 0.00 54 1018.1
20260502182404 19 211 4.8 8.0 0.00 0.00 0.00 54 1018.1
20260502182305 19 212 4.8 8.0 0.00 0.00 0.00 55 1018.1
20260502182105 19 212 4.8 8.0 0.00 0.00 0.00 55 1018.2
20260502181905 19 214 4.8 8.0 0.00 0.00 0.00 55 1018.1
20260502181705 19 215 4.8 8.0 0.00 0.00 0.00 55 1018.1
20260502181505 19 211 4.8 8.0 0.00 0.00 0.00 54 1018.1
20260502181404 19 213 4.8 8.0 0.00 0.00 0.00 54 1018.1
20260502181305 19 214 4.8 8.0 0.00 0.00 0.00 54 1018.1
20260502181204 19 214 4.8 8.0 0.00 0.00 0.00 54 1018.1
20260502181105 19 214 4.8 8.0 0.00 0.00 0.00 55 1018.0
20260502181005 19 213 4.8 9.7 0.00 0.00 0.00 54 1018.0
20260502180910 19 212 4.8 9.7 0.00 0.00 0.00 54 1018.0
20260502180804 19 211 6.4 9.7 0.00 0.00 0.00 53 1018.0
20260502180704 19 210 6.4 9.7 0.00 0.00 0.00 53 1018.1
20260502180504 19 211 6.4 9.7 0.00 0.00 0.00 52 1018.0
20260502180304 19 208 6.4 9.7 0.00 0.00 0.00 51 1017.9
20260502180205 20 208 4.8 9.7 0.00 0.00 0.00 51 1018.0
20260502180105 20 209 4.8 9.7 0.00 0.00 0.00 52 1018.0
20260502170304 21 105 1.6 6.4 0.00 0.00 0.00 44 1017.6
20260502170110 21 92 0.0 4.8 0.00 0.00 0.00 45 1017.7
20260502164305 21 80 6.4 14.5 0.00 0.00 0.00 43 1017.7
20260502164204 21 79 6.4 14.5 0.00 0.00 0.00 43 1017.7
20260502164005 22 80 6.4 14.5 0.00 0.00 0.00 43 1017.7
20260502163904 22 82 6.4 14.5 0.00 0.00 0.00 43 1017.7
20260502163805 22 83 6.4 14.5 0.00 0.00 0.00 43 1017.7
20260502163705 22 83 6.4 14.5 0.00 0.00 0.00 43 1017.6
20260502163605 22 83 6.4 14.5 0.00 0.00 0.00 43 1017.6
20260502163505 22 80 6.4 12.9 0.00 0.00 0.00 43 1017.7
20260502163414 22 81 6.4 12.9 0.00 0.00 0.00 44 1017.7
20260502163305 22 82 6.4 12.9 0.00 0.00 0.00 43 1017.7
20260502163204 22 84 6.4 12.9 0.00 0.00 0.00 43 1017.7
20260502163104 22 85 6.4 12.9 0.00 0.00 0.00 43 1017.7
20260502163005 22 85 6.4 12.9 0.00 0.00 0.00 43 1017.7
20260502162904 22 85 6.4 12.9 0.00 0.00 0.00 43 1017.8
20260502162710 22 83 6.4 12.9 0.00 0.00 0.00 42 1017.8
20260502162604 22 88 4.8 12.9 0.00 0.00 0.00 42 1017.8
20260502162505 22 88 6.4 12.9 0.00 0.00 0.00 42 1017.8
20260502162404 22 87 4.8 11.3 0.00 0.00 0.00 42 1017.8
20260502162305 22 86 4.8 11.3 0.00 0.00 0.00 42 1017.8
20260502162004 22 92 4.8 11.3 0.00 0.00 0.00 43 1017.9
20260502161906 22 90 4.8 11.3 0.00 0.00 0.00 42 1017.8
20260502161806 22 91 4.8 11.3 0.00 0.00 0.00 42 1017.8
20260502161714 22 92 4.8 11.3 0.00 0.00 0.00 42 1017.9
20260502161605 22 91 4.8 11.3 0.00 0.00 0.00 41 1017.9
20260502161504 22 92 4.8 11.3 0.00 0.00 0.00 41 1017.8
20260502161405 22 91 6.4 11.3 0.00 0.00 0.00 41 1017.9
20260502161305 22 89 6.4 11.3 0.00 0.00 0.00 41 1017.9
20260502161204 22 89 6.4 11.3 0.00 0.00 0.00 41 1017.9
20260502161104 22 86 6.4 11.3 0.00 0.00 0.00 42 1017.9
20260502160904 22 87 6.4 14.5 0.00 0.00 0.00 43 1018.0
20260502160705 22 84 8.0 14.5 0.00 0.00 0.00 42 1018.0
20260502160604 22 83 8.0 14.5 0.00 0.00 0.00 42 1018.0
20260502160504 22 83 6.4 14.5 0.00 0.00 0.00 41 1017.9
20260502160404 22 80 6.4 14.5 0.00 0.00 0.00 41 1017.9
20260502160204 22 79 6.4 14.5 0.00 0.00 0.00 41 1017.9
20260502160106 22 79 6.4 14.5 0.00 0.00 0.00 41 1018.0
20260502151904 22 79 9.7 19.3 0.00 0.00 0.00 41 1018.3
20260502151705 22 77 9.7 19.3 0.00 0.00 0.00 42 1018.4
20260502151605 22 75 8.0 19.3 0.00 0.00 0.00 41 1018.4
20260502151505 22 76 8.0 19.3 0.00 0.00 0.00 41 1018.4
20260502151404 22 82 8.0 19.3 0.00 0.00 0.00 41 1018.4
20260502151304 22 85 8.0 19.3 0.00 0.00 0.00 40 1018.4
20260502151213 22 89 6.4 17.7 0.00 0.00 0.00 40 1018.3
20260502151006 22 87 6.4 17.7 0.00 0.00 0.00 41 1018.4
20260502150904 22 84 6.4 17.7 0.00 0.00 0.00 40 1018.4
20260502150804 22 76 6.4 17.7 0.00 0.00 0.00 41 1018.5
20260502150704 22 74 8.0 17.7 0.00 0.00 0.00 41 1018.5
20260502150605 22 77 8.0 17.7 0.00 0.00 0.00 41 1018.4
20260502150511 22 80 8.0 17.7 0.00 0.00 0.00 40 1018.4
20260502150304 22 81 9.7 19.3 0.00 0.00 0.00 41 1018.5
20260502150105 22 81 11.3 20.9 0.00 0.00 0.00 42 1018.4
20260502140104 21 73 12.9 24.1 0.00 0.00 0.00 42 1019.2
20260502130604 21 85 14.5 22.5 0.00 0.00 0.00 41 1020.2
20260502130504 21 83 14.5 22.5 0.00 0.00 0.00 41 1020.3
20260502130405 21 81 14.5 22.5 0.00 0.00 0.00 42 1020.3
20260502130304 21 81 12.9 22.5 0.00 0.00 0.00 42 1020.2
20260502130204 21 80 12.9 22.5 0.00 0.00 0.00 43 1020.2
20260502130105 21 81 12.9 22.5 0.00 0.00 0.00 42 1020.3
20260502123805 21 76 11.3 22.5 0.00 0.00 0.00 42 1020.6
20260502123705 21 78 9.7 22.5 0.00 0.00 0.00 41 1020.6
20260502123605 21 79 9.7 22.5 0.00 0.00 0.00 41 1020.6
20260502123505 21 81 9.7 22.5 0.00 0.00 0.00 42 1020.6
20260502123304 21 79 9.7 22.5 0.00 0.00 0.00 42 1020.7
20260502123104 21 77 11.3 19.3 0.00 0.00 0.00 42 1020.7
20260502123005 21 74 11.3 19.3 0.00 0.00 0.00 42 1020.6
20260502122905 21 72 11.3 19.3 0.00 0.00 0.00 42 1020.6
20260502122804 21 72 11.3 19.3 0.00 0.00 0.00 43 1020.7
20260502122705 21 72 12.9 19.3 0.00 0.00 0.00 43 1020.9
20260502122504 20 74 12.9 19.3 0.00 0.00 0.00 43 1020.8
20260502122414 20 75 11.3 19.3 0.00 0.00 0.00 43 1020.8
20260502122306 20 76 11.3 19.3 0.00 0.00 0.00 43 1020.9
20260502122205 20 74 11.3 19.3 0.00 0.00 0.00 43 1020.8
20260502122104 20 73 11.3 19.3 0.00 0.00 0.00 43 1020.9
20260502122004 20 74 11.3 19.3 0.00 0.00 0.00 42 1020.9
20260502121904 20 75 9.7 19.3 0.00 0.00 0.00 42 1020.8
20260502121804 21 77 9.7 19.3 0.00 0.00 0.00 41 1020.9
20260502121712 21 78 9.7 19.3 0.00 0.00 0.00 42 1020.8
20260502121604 21 80 9.7 17.7 0.00 0.00 0.00 42 1020.9
20260502121504 21 79 9.7 17.7 0.00 0.00 0.00 43 1021.0
20260502121305 20 77 11.3 19.3 0.00 0.00 0.00 43 1021.0
20260502121105 20 78 11.3 19.3 0.00 0.00 0.00 43 1021.0
20260502121008 20 79 11.3 19.3 0.00 0.00 0.00 43 1021.1
20260502120905 20 79 12.9 19.3 0.00 0.00 0.00 43 1021.2
20260502120805 20 79 12.9 22.5 0.00 0.00 0.00 44 1021.1
20260502120704 20 81 12.9 22.5 0.00 0.00 0.00 44 1021.2
20260502120304 20 83 11.3 22.5 0.00 0.00 0.00 44 1021.2
20260502120204 20 84 11.3 22.5 0.00 0.00 0.00 43 1021.3
20260502120104 20 87 11.3 22.5 0.00 0.00 0.00 44 1021.3
20260502115905 20 88 11.3 22.5 0.00 0.00 0.00 43 1021.4
20260502115804 20 90 11.3 20.9 0.00 0.00 0.00 43 1021.3
20260502115704 20 90 11.3 22.5 0.00 0.00 0.00 42 1021.3
20260502115604 20 91 9.7 22.5 0.00 0.00 0.00 43 1021.4
20260502115505 20 91 11.3 22.5 0.00 0.00 0.00 43 1021.4
20260502115405 20 90 11.3 22.5 0.00 0.00 0.00 43 1021.3
20260502115310 20 90 11.3 22.5 0.00 0.00 0.00 42 1021.3
20260502115205 20 90 11.3 22.5 0.00 0.00 0.00 42 1021.4
20260502115104 20 90 12.9 22.5 0.00 0.00 0.00 42 1021.4
20260502115005 20 90 12.9 22.5 0.00 0.00 0.00 42 1021.4
20260502114905 20 90 12.9 22.5 0.00 0.00 0.00 42 1021.4
20260502114804 20 88 12.9 22.5 0.00 0.00 0.00 43 1021.5
20260502114704 20 88 12.9 20.9 0.00 0.00 0.00 43 1021.5
20260502114506 20 87 12.9 20.9 0.00 0.00 0.00 43 1021.6
20260502114305 20 86 12.9 20.9 0.00 0.00 0.00 43 1021.7
20260502114204 20 84 12.9 20.9 0.00 0.00 0.00 43 1021.5
20260502114004 20 83 12.9 20.9 0.00 0.00 0.00 43 1021.6
20260502113904 20 83 12.9 20.9 0.00 0.00 0.00 43 1021.7
20260502113805 20 84 12.9 20.9 0.00 0.00 0.00 43 1021.6
20260502113704 20 82 11.3 20.9 0.00 0.00 0.00 43 1021.7
20260502113613 20 82 11.3 20.9 0.00 0.00 0.00 43 1021.7
20260502113505 20 81 11.3 20.9 0.00 0.00 0.00 44 1021.7
20260502113404 20 80 11.3 19.3 0.00 0.00 0.00 44 1021.8
20260502113304 20 80 11.3 19.3 0.00 0.00 0.00 43 1021.7
20260502113205 20 81 11.3 19.3 0.00 0.00 0.00 43 1021.8
20260502113105 20 80 11.3 19.3 0.00 0.00 0.00 43 1021.9
20260502113004 20 78 9.7 17.7 0.00 0.00 0.00 43 1021.8
20260502112912 20 79 8.0 17.7 0.00 0.00 0.00 43 1021.8
20260502112804 20 81 8.0 17.7 0.00 0.00 0.00 43 1021.8
20260502112705 20 81 8.0 17.7 0.00 0.00 0.00 43 1021.9
20260502112604 20 83 8.0 16.1 0.00 0.00 0.00 42 1021.9
20260502112404 20 86 8.0 16.1 0.00 0.00 0.00 42 1021.8
20260502112306 20 88 8.0 16.1 0.00 0.00 0.00 42 1021.8
20260502112104 20 87 9.7 17.7 0.00 0.00 0.00 42 1021.9
20260502112005 20 90 9.7 17.7 0.00 0.00 0.00 42 1021.9
20260502111905 20 89 9.7 17.7 0.00 0.00 0.00 42 1021.9
20260502111805 20 88 9.7 17.7 0.00 0.00 0.00 43 1022.0
20260502111704 19 89 9.7 17.7 0.00 0.00 0.00 43 1022.1
20260502111604 19 90 9.7 17.7 0.00 0.00 0.00 42 1022.0
20260502111510 19 91 9.7 17.7 0.00 0.00 0.00 43 1022.1
20260502111204 20 90 9.7 17.7 0.00 0.00 0.00 42 1022.1
20260502111005 20 90 9.7 17.7 0.00 0.00 0.00 42 1022.1
20260502110904 20 90 8.0 17.7 0.00 0.00 0.00 42 1022.2
20260502110604 20 93 8.0 17.7 0.00 0.00 0.00 42 1022.1
20260502110304 20 93 8.0 17.7 0.00 0.00 0.00 43 1022.2
20260502110109 20 96 8.0 17.7 0.00 0.00 0.00 42 1022.3
20260502105804 20 91 9.7 16.1 0.00 0.00 0.00 43 1022.4
20260502105705 19 90 9.7 16.1 0.00 0.00 0.00 43 1022.4
20260502105505 19 89 9.7 17.7 0.00 0.00 0.00 44 1022.4
20260502105410 19 88 9.7 17.7 0.00 0.00 0.00 44 1022.5
20260502105205 19 88 11.3 17.7 0.00 0.00 0.00 44 1022.6
20260502105104 19 85 11.3 17.7 0.00 0.00 0.00 44 1022.5
20260502105004 19 85 11.3 17.7 0.00 0.00 0.00 44 1022.4
20260502104905 19 86 11.3 17.7 0.00 0.00 0.00 44 1022.5
20260502104804 19 87 11.3 17.7 0.00 0.00 0.00 44 1022.6
20260502104704 18 86 11.3 17.7 0.00 0.00 0.00 44 1022.6
20260502104604 18 86 11.3 17.7 0.00 0.00 0.00 43 1022.6
20260502104505 18 85 11.3 17.7 0.00 0.00 0.00 44 1022.7
20260502104412 18 85 11.3 17.7 0.00 0.00 0.00 44 1022.7
20260502104204 18 86 9.7 16.1 0.00 0.00 0.00 44 1022.6
20260502104104 19 88 9.7 16.1 0.00 0.00 0.00 44 1022.7
20260502104005 18 112 3.2 6.4 0.00 0.00 0.00 45 1022.7
20260502103904 18 108 3.2 4.8 0.00 0.00 0.00 45 1022.8
20260502103805 18 125 3.2 4.8 0.00 0.00 0.00 45 1022.7
20260502102005 19 90 8.0 16.1 0.00 0.00 0.00 47 1023.0
20260502101805 19 88 6.4 14.5 0.00 0.00 0.00 47 1023.1
20260502101704 19 85 6.4 14.5 0.00 0.00 0.00 47 1023.2
20260502101604 19 83 6.4 14.5 0.00 0.00 0.00 47 1023.1
20260502101513 19 83 6.4 14.5 0.00 0.00 0.00 47 1023.1
20260502101404 19 81 6.4 14.5 0.00 0.00 0.00 47 1023.1
20260502101304 19 83 6.4 14.5 0.00 0.00 0.00 47 1023.2
20260502101216 19 89 6.4 14.5 0.00 0.00 0.00 47 1023.2
20260502101104 19 90 6.4 14.5 0.00 0.00 0.00 46 1023.2
20260502101004 19 87 4.8 14.5 0.00 0.00 0.00 46 1023.2
20260502100904 19 88 4.8 12.9 0.00 0.00 0.00 46 1023.1
20260502100803 19 89 6.4 12.9 0.00 0.00 0.00 46 1023.2
20260502100704 19 90 6.4 12.9 0.00 0.00 0.00 46 1023.2
20260502100626 19 90 6.4 12.9 0.00 0.00 0.00 46 1023.3
20260502100504 19 90 6.4 12.9 0.00 0.00 0.00 46 1023.2
20260502100405 19 90 6.4 12.9 0.00 0.00 0.00 46 1023.3
20260502100204 18 91 8.0 16.1 0.00 0.00 0.00 47 1023.4
20260502100104 18 90 8.0 16.1 0.00 0.00 0.00 47 1023.3
20260502091505 17 97 4.8 11.3 0.00 0.00 0.00 52 1024.0
20260502091404 17 97 4.8 9.7 0.00 0.00 0.00 52 1024.0
20260502091304 17 100 4.8 9.7 0.00 0.00 0.00 51 1024.1
20260502091204 17 101 4.8 9.7 0.00 0.00 0.00 52 1024.1
20260502091104 17 99 4.8 9.7 0.00 0.00 0.00 50 1024.1
20260502091005 17 95 4.8 9.7 0.00 0.00 0.00 51 1024.1
20260502090804 17 88 4.8 9.7 0.00 0.00 0.00 52 1024.1
20260502090710 17 90 4.8 9.7 0.00 0.00 0.00 52 1024.2
20260502090604 17 89 4.8 9.7 0.00 0.00 0.00 52 1024.2
20260502090504 17 88 3.2 8.0 0.00 0.00 0.00 53 1024.2
20260502090404 17 86 3.2 8.0 0.00 0.00 0.00 54 1024.2
20260502090304 17 82 3.2 8.0 0.00 0.00 0.00 55 1024.1
20260502090204 17 78 3.2 8.0 0.00 0.00 0.00 56 1024.2
20260502071504 13 348 4.8 8.0 0.00 0.00 0.00 69 1025.1
20260502071311 13 346 4.8 6.4 0.00 0.00 0.00 69 1025.2
20260502071103 13 347 4.8 6.4 0.00 0.00 0.00 69 1025.2
20260502071004 13 346 4.8 8.0 0.00 0.00 0.00 69 1025.2
20260502070904 13 347 4.8 8.0 0.00 0.00 0.00 70 1025.2
20260502070704 13 349 4.8 8.0 0.00 0.00 0.00 70 1025.3
20260502070505 13 349 4.8 9.7 0.00 0.00 0.00 70 1025.3
20260502070403 13 349 4.8 9.7 0.00 0.00 0.00 70 1025.3
20260502070310 13 351 4.8 9.7 0.00 0.00 0.00 70 1025.3
20260502070105 13 351 4.8 9.7 0.00 0.00 0.00 71 1025.2
20260502070004 13 353 4.8 9.7 0.00 0.00 0.00 71 1025.3
20260502065904 13 354 4.8 9.7 0.00 0.00 0.00 71 1025.1
20260502065803 13 355 4.8 9.7 0.00 0.00 0.00 70 1025.2
20260502065705 13 354 4.8 9.7 0.00 0.00 0.00 70 1025.2
20260502065504 13 358 4.8 9.7 0.00 0.00 0.00 71 1025.3
20260502065404 12 358 4.8 9.7 0.00 0.00 0.00 71 1025.4
20260502065306 12 356 4.8 9.7 0.00 0.00 0.00 71 1025.4
20260502065204 12 356 4.8 9.7 0.00 0.00 0.00 72 1025.4
20260502065104 12 355 4.8 9.7 0.00 0.00 0.00 71 1025.4
20260502065011 12 351 4.8 9.7 0.00 0.00 0.00 71 1025.4
20260502064904 12 347 4.8 9.7 0.00 0.00 0.00 71 1025.5
20260502064804 12 344 4.8 9.7 0.00 0.00 0.00 72 1025.4
20260502064604 12 339 4.8 9.7 0.00 0.00 0.00 72 1025.5
20260502064505 12 337 4.8 9.7 0.00 0.00 0.00 72 1025.6
20260502064304 12 335 4.8 9.7 0.00 0.00 0.00 73 1025.6
20260502064104 12 336 4.8 9.7 0.00 0.00 0.00 74 1025.6
20260502063904 12 340 4.8 9.7 0.00 0.00 0.00 74 1025.6
20260502063704 12 341 6.4 9.7 0.00 0.00 0.00 73 1025.4
20260502063604 12 340 6.4 9.7 0.00 0.00 0.00 73 1025.6
20260502063504 12 341 4.8 9.7 0.00 0.00 0.00 73 1025.5
20260502063304 12 340 4.8 8.0 0.00 0.00 0.00 73 1025.5
20260502063204 12 337 4.8 8.0 0.00 0.00 0.00 74 1025.5
20260502063103 12 335 4.8 8.0 0.00 0.00 0.00 74 1025.6
20260502063011 12 335 4.8 8.0 0.00 0.00 0.00 74 1025.5
20260502062804 12 335 4.8 8.0 0.00 0.00 0.00 74 1025.6
20260502062704 12 333 4.8 8.0 0.00 0.00 0.00 75 1025.5
20260502062604 12 334 4.8 8.0 0.00 0.00 0.00 75 1025.6
20260502062504 11 334 4.8 8.0 0.00 0.00 0.00 76 1025.6
20260502062404 11 335 4.8 8.0 0.00 0.00 0.00 75 1025.6
20260502062306 11 335 4.8 8.0 0.00 0.00 0.00 75 1025.5
20260502062204 11 336 4.8 8.0 0.00 0.00 0.00 75 1025.6
20260502062104 11 336 4.8 8.0 0.00 0.00 0.00 75 1025.5
20260502062011 11 334 4.8 8.0 0.00 0.00 0.00 75 1025.6
20260502061903 11 333 4.8 8.0 0.00 0.00 0.00 75 1025.5
20260502061803 11 335 4.8 8.0 0.00 0.00 0.00 75 1025.5
20260502061704 11 335 4.8 8.0 0.00 0.00 0.00 76 1025.5
20260502061504 11 333 4.8 8.0 0.00 0.00 0.00 76 1025.5
20260502061404 11 334 4.8 8.0 0.00 0.00 0.00 77 1025.5
20260502061204 11 334 4.8 8.0 0.00 0.00 0.00 76 1025.4
20260502061104 11 337 4.8 8.0 0.00 0.00 0.00 76 1025.5
20260502060904 11 337 4.8 8.0 0.00 0.00 0.00 76 1025.6
20260502060804 11 334 4.8 8.0 0.00 0.00 0.00 76 1025.5
20260502060704 11 334 4.8 8.0 0.00 0.00 0.00 76 1025.6
20260502060604 11 337 3.2 8.0 0.00 0.00 0.00 77 1025.6
20260502060404 11 336 3.2 6.4 0.00 0.00 0.00 76 1025.6
20260502060303 11 336 3.2 6.4 0.00 0.00 0.00 76 1025.6
20260502060204 11 337 3.2 6.4 0.00 0.00 0.00 76 1025.6
20260502060104 11 336 3.2 6.4 0.00 0.00 0.00 76 1025.6
20260502060011 11 338 3.2 6.4 0.00 0.00 0.00 76 1025.6
20260502055904 11 339 3.2 6.4 0.00 0.00 0.00 76 1025.6
20260502055804 11 341 3.2 6.4 0.00 0.00 0.00 77 1025.5